Regional Weather Roundup
Issued by NWS Sterling, VA

Home | Current Version | Previous Version | Text Only | Print | Product List | Glossary Off
Versions: 1 2 3 4 5 6 7 8 9 10 11 12 13 14 15 16 17 18 19 20 21 22 23 24 25 26 27 28

000
ASUS41 KLWX 190911
RWRLWX

REGIONAL WEATHER ROUNDUP
NATIONAL WEATHER SERVICE BALTIMORE MD/WASHINGTON DC
500 AM EDT THU OCT 19 2017

Note: "FAIR" indicates few or no clouds below 12,000 feet
with no significant weather and/or obstructions to visibility.
 TC=TEMPERATURE CELSIUS

 * =Non NWS site. Station does not report precipitation (e.g. rain,
    snow, etc.), thunder, or fog.

DCZ001-MDZ009-015-VAZ040>042-051-053>054-191000-
WASHINGTON METRO

CITY           SKY/WX    TMP DP  RH WIND       PRES   REMARKS
WASHINGTON NAT MOCLDY    51  47  86 SW3       30.28S
DULLES         PTCLDY    40  40 100 CALM      30.27R
ANDREWS AFB    PTCLDY    44  42  93 S5        30.27S
FT BELVOIR     CLEAR     41  40  96 CALM      30.28S
QUANTICO       CLEAR     46  45  96 NW5       30.29S
COLLEGE PARK*  PTCLDY    42  41  97 CALM      30.27S
LEESBURG*      CLEAR     43  43 100 CALM      30.28S
MANASSAS*      PTCLDY    38  37  97 NW3       30.28R
GAITHERSBURG*  CLEAR     42  41  96 CALM      30.27S

$$

MDZ006>007-011-014-191000-
BALTIMORE METRO

CITY           SKY/WX    TMP DP  RH WIND       PRES   REMARKS
BWI AIRPORT    PTCLDY    43  43 100 CALM      30.27S
MD SCIENCE CTR   N/A     52  46  80 MISG      30.28R
MARTIN STATE   CLEAR     46  46 100 CALM      30.28S
ANNAPOLIS      CLEAR     52  49  89 CALM      30.27S
FORT MEADE*    CLEAR     37  37 100 CALM      30.29F

$$

MDZ012-015-019>023-191000-
MARYLAND EASTERN SHORE

CITY           SKY/WX    TMP DP  RH WIND       PRES   REMARKS
OCEAN CITY     CLEAR     42  42 100 CALM      30.30S
SALISBURY      PTCLDY    42  41  96 CALM      30.29S
CAMBRIDGE*     CLEAR     45  43  93 CALM      30.29S
EASTON*        MOCLDY    48  46  93 CALM      30.32R

$$

MDZ017>025-191000-
SOUTHERN MARYLAND

CITY           SKY/WX    TMP DP  RH WIND       PRES   REMARKS
PATUXENT RIVER CLEAR     54  50  86 SW7       30.28S
ST INIGOES     CLEAR     47  45  93 CALM      30.28S
LEONARDTOWN*   NOT AVBL

$$

MDZ003>005-191000-
NORTH CENTRAL MARYLAND

CITY           SKY/WX    TMP DP  RH WIND       PRES   REMARKS
FREDERICK*     CLEAR     43  43 100 SE3       30.29S
HAGERSTOWN APT PTCLDY    49  42  77 S3        30.25S
WESTMINSTER*   CLEAR     50  43  76 CALM      30.26S

$$

MDZ501>502-191000-
WESTERN MARYLAND

CITY           SKY/WX    TMP DP  RH WIND       PRES   REMARKS
OAKLAND*       CLEAR     50  34  53 SW7       30.23S
CUMBERLAND*    PTCLDY    41  41 100 CALM      30.30R

$$

VAZ025>031-191000-
SHENANDOAH VALLEY

CITY           SKY/WX    TMP DP  RH WIND       PRES   REMARKS
WINCHESTER*    CLEAR     43  39  87 CALM      30.25S
FRONT ROYAL*   CLEAR     43  41  93 MISG      30.25S
LURAY*         CLEAR     37  37 100 CALM      30.26S
NEW MARKET*    PTCLDY    37  36  94 CALM      30.27S
STAUNTON*      CLEAR     37  35  91 CALM      30.29S
WAYNESBORO*    CLEAR     38  38  99 S3        30.28S

$$

WVZ021-048>050-054>055-191000-
EASTERN WEST VIRGINIA PANHANDLE

CITY           SKY/WX    TMP DP  RH WIND       PRES   REMARKS
MARTINSBURG    PTCLDY    39  37  92 W3        30.25S
PETERSBURG*    CLEAR     35  34  98 CALM      30.27S

$$

VAZ036>039-050-191000-
CENTRAL FOOTHILLS

CITY           SKY/WX    TMP DP  RH WIND       PRES   REMARKS
CHARLOTTESVILL CLEAR     47  43  86 VRB5      30.26F
CULPEPER*      PTCLDY    38  36  94 CALM      30.28R
ORANGE*        PTCLDY    37  36  93 CALM      30.27S
GORDONSVILLE*  PTCLDY    38  38 100 CALM      30.27S
WARRENTON*     PTCLDY    35  33  90 CALM      30.26S

$$

VAZ055>057-191000-
NORTH AND CENTRAL PIEDMONT

CITY           SKY/WX    TMP DP  RH WIND       PRES   REMARKS
FREDERICKSBRG* CLEAR     42  42 100 CALM      30.27F
STAFFORD*      PTCLDY    35  35 100 CALM      30.32S

$$

NCZ024-NYZ072-PAZ021-071-VAZ022-071-191000-
OTHER REGIONAL OBSERVATIONS

CITY           SKY/WX    TMP DP  RH WIND       PRES   REMARKS
NEW YORK CITY  CLEAR     57  45  64 VRB3      30.28S
PHILADELPHIA   PTCLDY    52  47  83 CALM      30.28S
PITTSBURGH     CLEAR     46  40  79 CALM      30.20S
ROANOKE        CLEAR     40  39  97 CALM      30.32S
RICHMOND       PTCLDY    47  44  90 CALM      30.29S
RALEIGH        PTCLDY    43  43 100 CALM      30.29F

$$

ANZ530>537-191000-
MARINE OBSERVATIONS

STATION/POSITION TIME  TEMP    WIND        PRES
                       AIR SEA DIR/SP/G
                 (UTC) (F)     (DEG/KT/KT) (MB)
THOMAS PT LIGHT  0900   58 68  220/ 10/ 11   N/A
BALT KEY BRIDGE  0836   53     210/  5/  7 1024.9S
COVE POINT       0836   58     240/  9/ 11 1026.1R
LEWISETTA        0836   54 64  240/  3/  4 1025.5S
SOLOMONS ISLAND  0836   58 69  220/  9/ 10 1025.2R
PINEY POINT      0848          230/  9/ 10   N/A

$$





USA.gov is the U.S. government's official web portal to all federal, state and local government web resources and services.